Overview Statistics Trail Chart Weather Telemetry Raw packets
 

This is the latest recevied weather packets stored in our database for station/object OK2ZA-6. If no packets are shown the sender has not sent any weather packets the latest 10 day(s).

<< 34 35 36 37 38 39 40 >>
Time Temp. Humidity Pressure Rain* Wind** Luminosity Snow
1788186004 26.11° C 48% 1015.7 hPa 0 mm - - -
1788185404 26.11° C 50% 1015.6 hPa 0 mm - - -
1788184804 25.56° C 51% 1015.6 hPa 0 mm - - -
1788184204 25° C 54% 1015.7 hPa 0 mm - - -
1788183604 25° C 52% 1015.7 hPa 0 mm - - -
1788183004 25.56° C 53% 1015.7 hPa 0 mm - - -
1788182404 25.56° C 53% 1015.7 hPa 0 mm - - -
1788181804 25.56° C 55% 1015.8 hPa 0 mm - - -
1788181204 25.56° C 54% 1015.8 hPa 0 mm - - -
1788180604 25.56° C 54% 1015.7 hPa 0 mm - - -
1788180005 25.56° C 54% 1015.8 hPa 0 mm - - -
1788179404 25° C 56% 1015.8 hPa 0 mm - - -
1788178804 25° C 56% 1015.9 hPa 0 mm - - -
1788178204 24.44° C 59% 1015.9 hPa 0 mm - - -
1788177604 25° C 57% 1015.9 hPa 0 mm - - -
1788177004 25° C 58% 1015.9 hPa 0 mm - - -
1788176405 23.89° C 64% 1016 hPa 0 mm - - -
1788175804 23.89° C 64% 1016.1 hPa 0 mm - - -
1788175204 23.89° C 69% 1016.1 hPa 0 mm - - -
1788174604 23.33° C 73% 1016.1 hPa 0 mm - - -
1788174004 22.22° C 77% 1016.1 hPa 0 mm - - -
1788173404 21.67° C 79% 1016.2 hPa 0 mm - - -
1788172804 21.67° C 78% 1016.3 hPa 0 mm - - -
1788172204 21.67° C 79% 1016.2 hPa 0 mm - - -
1788171604 21.67° C 79% 1016.1 hPa 0 mm - - -

* Rain latest hour (hover to see other rain measurements)
** Current wind speed in m/s (hover to see current wind gust speed)